Nagpur Sonegaon, India

11:38 PM IST on June 28, 2017 (GMT +0530)
Nagpur

Weather History for VANP - October, 2012

Change the Weather History Date:

Thursday, October 18, 2012

  Actual Average Record
Temperature  
Mean Temperature 76 °F -  
Max Temperature 91 °F 89 °F - ()
Min Temperature 62 °F 63 °F - ()
Cooling Degree Days 12    
Growing Degree Days 26 (Base 50)    
Moisture  
Dew Point 61 °F    
Average Humidity 58    
Maximum Humidity 90    
Minimum Humidity 28    
Precipitation  
Precipitation 0.00 in 0.05 in - ()
Sea Level Pressure  
Sea Level Pressure 29.94 in    
Wind  
Wind Speed 2 mph ()    
Max Wind Speed 6 mph    
Max Gust Speed -    
Visibility 2.5 miles    
Events      
T = Trace of Precipitation, MM = Missing Value Source: Averaged Metar Reports

Daily Weather History Graph

Daily Weather History Graph

Search for Another Location

Airport or City:

Trip Planner

Search our weather history database for the weather conditions in past years. The results will help you decide how hot, cold, wet, or windy it might be!

Date:

Astronomy

Oct. 18, 2012 Rise Set
Actual Time 6:10 AM IST 5:47 PM IST
Civil Twilight 5:47 AM IST 6:09 PM IST
Nautical Twilight 5:22 AM IST 6:35 PM IST
Astronomical Twilight 4:56 AM IST 7:01 PM IST
Moon 8:57 AM IST (10/18) 8:18 PM IST (10/18)
Length of Visible Light 12h 21m
Length of Day
11h 36m
Waxing Crescent, 11% of the Moon is Illuminated
Oct 18
Waxing Crescent
Oct 22
First Quarter
Oct 30
Full
Nov 7
Last Quarter
Nov 14
New

Hourly Weather History & Observations

Time (IST) Temp. Heat Index Dew Point Humidity Pressure Visibility Wind Dir Wind Speed Gust Speed Precip Events Conditions
12:10 AM 73.4 °F - 62.6 °F 69% 0.41 in 2.5 mi Calm Calm - N/A   Haze
1:10 AM 71.6 °F - 64.4 °F 78% 29.95 in 2.5 mi Calm Calm - N/A   Haze
2:10 AM 71.6 °F - 64.4 °F 78% 29.95 in 2.5 mi Calm Calm - N/A   Haze
2:30 AM 67 °F - 64 °F 86% 29.94 in 1 mi NW 3.5 mph - -   Haze
3:10 AM 71.6 °F - 64.4 °F 78% 29.95 in 2.5 mi NW 3.5 mph - N/A   Haze
4:10 AM 69.8 °F - 62.6 °F 78% 29.95 in 2.5 mi NW 2.3 mph - N/A   Haze
5:30 AM 64 °F - 62 °F 90% 29.95 in 1 mi Calm Calm - -   Haze
6:10 AM 66.2 °F - 60.8 °F 83% 29.92 in 2.5 mi Calm Calm - N/A   Haze
8:10 AM 75.2 °F - 62.6 °F 65% 30.01 in 3.1 mi North 2.3 mph - N/A   Haze
8:30 AM 74 °F - 65 °F 66% 30.00 in 2 mi North 2.3 mph - -   Haze
9:10 AM 80.6 °F 82.3 °F 64.4 °F 58% 30.04 in 3.1 mi NNE 4.6 mph - N/A   Haze
10:10 AM 84.2 °F 85.6 °F 64.4 °F 51% 30.04 in 3.1 mi NNE 3.5 mph - N/A   Haze
11:30 AM 89 °F - 67 °F 39% 29.94 in 2 mi ENE 2.3 mph - -   Haze
12:10 PM 73.4 °F - 66.2 °F 78% 29.98 in - North - - N/A   Haze
1:10 PM 93.2 °F 94.1 °F 62.6 °F 36% 29.95 in 3.1 mi East 4.6 mph - N/A   Haze
2:10 PM 93.2 °F 93.3 °F 60.8 °F 34% 29.92 in 3.7 mi NE 5.8 mph - N/A   Partly Cloudy
2:30 PM 90 °F - 61 °F 28% 29.86 in 2 mi ENE 5.8 mph - -   Scattered Clouds
3:10 PM 93.2 °F 93.3 °F 60.8 °F 34% 29.89 in 3.7 mi ENE 5.8 mph - N/A   Partly Cloudy
4:10 PM 89.6 °F 88.9 °F 59.0 °F 36% 29.89 in 3.7 mi ENE 5.8 mph - N/A   Unknown
5:10 PM 87.8 °F 86.1 °F 55.4 °F 33% 29.89 in 3.7 mi East 4.6 mph - N/A   Unknown
5:30 PM 82 °F - 59 °F 35% 29.86 in 2 mi East 4.6 mph - -  
6:10 PM 80.6 °F 80.3 °F 53.6 °F 39% 29.92 in 3.7 mi East 2.3 mph - N/A   Unknown
7:10 PM 78.8 °F - 55.4 °F 44% 29.92 in 3.1 mi East 2.3 mph - N/A   Haze
8:10 PM 75.2 °F - 55.4 °F 50% 29.95 in 3.1 mi Calm Calm - N/A   Haze
8:30 PM 67 °F - 61 °F 74% 29.93 in 2 mi NW 2.3 mph - -   Haze
9:10 PM 75.2 °F - 55.4 °F 50% 29.95 in 2.5 mi NW 2.3 mph - N/A   Haze
10:10 PM 73.4 °F - 57.2 °F 57% 29.95 in 1.9 mi NW 3.5 mph - N/A   Haze
11:10 PM 69.8 °F - 57.2 °F 64% 29.95 in 1.9 mi NW 3.5 mph - N/A   Haze
11:30 PM 64 °F - 60 °F 83% 29.94 in 1 mi Calm Calm - -   Haze